Time,TemperatureF,DewpointF,PressureIn,WindDirection,WindDirectionDegrees,WindSpeedMPH,WindSpeedGustMPH,Humidity,HourlyPrecipIn,Conditions,Clouds,dailyrainin,SoftwareType,DateUTC
2013-03-11 00:04:00,45.8,35.8,30.26,North,0,0.0,0.0,68,0.00,,---,0.00,VWS V14.01,2013-03-11 07:04:00,
2013-03-11 00:09:00,45.7,36.1,30.25,North,0,0.0,0.0,69,0.00,,---,0.00,VWS V14.01,2013-03-11 07:09:00,
2013-03-11 00:14:00,45.4,35.8,30.24,North,0,0.0,1.0,69,0.00,,---,0.00,VWS V14.01,2013-03-11 07:14:00,
2013-03-11 00:19:00,45.3,35.7,30.26,North,359,0.0,1.0,69,0.00,,---,0.00,VWS V14.01,2013-03-11 07:19:00,
2013-03-11 00:24:00,45.2,36.0,30.26,North,0,0.0,2.0,70,0.00,,---,0.00,VWS V14.01,2013-03-11 07:24:00,
2013-03-11 00:29:00,45.0,35.8,30.25,North,0,0.0,2.0,70,0.00,,---,0.00,VWS V14.01,2013-03-11 07:29:00,
2013-03-11 00:34:00,44.8,35.6,30.24,North,0,0.0,0.0,70,0.00,,---,0.00,VWS V14.01,2013-03-11 07:34:00,
2013-03-11 00:39:00,44.7,35.9,30.25,North,0,0.0,0.0,71,0.00,,---,0.00,VWS V14.01,2013-03-11 07:39:00,
2013-03-11 00:44:00,44.6,35.8,30.25,North,0,0.0,1.0,71,0.00,,---,0.00,VWS V14.01,2013-03-11 07:44:00,
2013-03-11 00:49:00,44.5,35.7,30.26,North,0,0.0,1.0,71,0.00,,---,0.00,VWS V14.01,2013-03-11 07:49:00,
2013-03-11 00:54:00,44.5,35.7,30.25,North,359,0.0,3.0,71,0.00,,---,0.00,VWS V14.01,2013-03-11 07:54:00,
2013-03-11 00:59:00,44.1,35.3,30.27,North,359,0.0,3.0,71,0.00,,---,0.00,VWS V14.01,2013-03-11 07:59:00,
2013-03-11 01:04:00,44.0,35.2,30.24,North,0,0.0,1.0,71,0.00,,---,0.00,VWS V14.01,2013-03-11 08:04:00,
2013-03-11 01:09:00,43.9,35.1,30.26,North,0,0.0,1.0,71,0.00,,---,0.00,VWS V14.01,2013-03-11 08:09:00,
2013-03-11 01:14:00,43.7,35.3,30.27,North,0,0.0,1.0,72,0.00,,---,0.00,VWS V14.01,2013-03-11 08:14:00,
2013-03-11 01:19:00,43.6,35.5,30.25,North,0,1.0,2.0,73,0.00,,---,0.00,VWS V14.01,2013-03-11 08:19:00,
2013-03-11 01:24:00,43.6,35.5,30.24,North,0,0.0,2.0,73,0.00,,---,0.00,VWS V14.01,2013-03-11 08:24:00,
2013-03-11 01:30:00,43.4,35.3,30.24,North,0,0.0,2.0,73,0.00,,---,0.00,VWS V14.01,2013-03-11 08:30:00,
2013-03-11 01:35:00,43.5,35.4,30.26,North,0,0.0,0.0,73,0.00,,---,0.00,VWS V14.01,2013-03-11 08:35:00,
2013-03-11 01:40:00,43.3,35.2,30.25,North,0,0.0,2.0,73,0.00,,---,0.00,VWS V14.01,2013-03-11 08:40:00,
2013-03-11 01:45:00,43.3,35.2,30.25,North,0,0.0,2.0,73,0.00,,---,0.00,VWS V14.01,2013-03-11 08:45:00,
2013-03-11 01:50:00,43.0,35.0,30.24,North,0,0.0,2.0,73,0.00,,---,0.00,VWS V14.01,2013-03-11 08:50:00,
2013-03-11 01:55:00,42.9,34.8,30.25,North,0,0.0,2.0,73,0.00,,---,0.00,VWS V14.01,2013-03-11 08:55:00,
2013-03-11 02:00:00,42.8,34.8,30.24,North,0,0.0,0.0,73,0.00,,---,0.00,VWS V14.01,2013-03-11 09:00:00,
2013-03-11 02:05:00,42.7,35.0,30.25,North,0,0.0,1.0,74,0.00,,---,0.00,VWS V14.01,2013-03-11 09:05:00,
2013-03-11 02:10:00,42.4,34.7,30.26,North,0,0.0,1.0,74,0.00,,---,0.00,VWS V14.01,2013-03-11 09:10:00,
2013-03-11 02:15:00,42.3,34.6,30.25,North,359,0.0,1.0,74,0.00,,---,0.00,VWS V14.01,2013-03-11 09:15:00,
2013-03-11 02:20:00,42.2,34.5,30.25,North,0,0.0,1.0,74,0.00,,---,0.00,VWS V14.01,2013-03-11 09:20:00,
2013-03-11 02:25:00,42.0,34.3,30.25,North,0,0.0,2.0,74,0.00,,---,0.00,VWS V14.01,2013-03-11 09:25:00,
2013-03-11 02:30:00,42.0,34.3,30.23,North,0,0.0,2.0,74,0.00,,---,0.00,VWS V14.01,2013-03-11 09:30:00,
2013-03-11 02:35:00,41.9,34.6,30.25,North,0,0.0,2.0,75,0.00,,---,0.00,VWS V14.01,2013-03-11 09:35:00,
2013-03-11 02:40:00,41.9,34.6,30.26,North,0,0.0,2.0,75,0.00,,---,0.00,VWS V14.01,2013-03-11 09:40:00,
2013-03-11 02:45:00,41.9,34.2,30.24,North,0,0.0,2.0,74,0.00,,---,0.00,VWS V14.01,2013-03-11 09:45:00,
2013-03-11 02:51:00,41.8,34.5,30.25,North,0,0.0,2.0,75,0.00,,---,0.00,VWS V14.01,2013-03-11 09:51:00,
2013-03-11 02:56:00,41.7,34.7,30.25,North,0,0.0,2.0,76,0.00,,---,0.00,VWS V14.01,2013-03-11 09:56:00,
2013-03-11 03:01:00,41.6,34.3,30.24,North,0,0.0,0.0,75,0.00,,---,0.00,VWS V14.01,2013-03-11 10:01:00,
2013-03-11 03:06:00,41.3,33.7,30.24,North,0,0.0,2.0,74,0.00,,---,0.00,VWS V14.01,2013-03-11 10:06:00,
2013-03-11 03:11:00,41.2,33.9,30.25,North,0,1.0,2.0,75,0.00,,---,0.00,VWS V14.01,2013-03-11 10:11:00,
2013-03-11 03:16:00,41.2,34.2,30.24,North,0,0.0,2.0,76,0.00,,---,0.00,VWS V14.01,2013-03-11 10:16:00,
2013-03-11 03:21:00,41.1,34.1,30.24,North,0,0.0,2.0,76,0.00,,---,0.00,VWS V14.01,2013-03-11 10:21:00,
2013-03-11 03:26:00,41.1,34.5,30.25,North,359,1.0,2.0,77,0.00,,---,0.00,VWS V14.01,2013-03-11 10:26:00,
2013-03-11 03:31:00,40.9,33.9,30.23,North,0,0.0,1.0,76,0.00,,---,0.00,VWS V14.01,2013-03-11 10:31:00,
2013-03-11 03:36:00,40.7,33.7,30.24,North,0,1.0,3.0,76,0.00,,---,0.00,VWS V14.01,2013-03-11 10:36:00,
2013-03-11 03:41:00,40.5,33.5,30.23,North,0,0.0,3.0,76,0.00,,---,0.00,VWS V14.01,2013-03-11 10:41:00,
2013-03-11 03:47:00,40.5,33.9,30.24,North,0,0.0,3.0,77,0.00,,---,0.00,VWS V14.01,2013-03-11 10:47:00,
2013-03-11 03:52:00,40.3,33.7,30.24,North,0,1.0,3.0,77,0.00,,---,0.00,VWS V14.01,2013-03-11 10:52:00,
2013-03-11 03:57:00,40.3,34.0,30.22,North,0,0.0,3.0,78,0.00,,---,0.00,VWS V14.01,2013-03-11 10:57:00,
2013-03-11 04:02:00,40.5,34.2,30.24,North,0,0.0,0.0,78,0.00,,---,0.00,VWS V14.01,2013-03-11 11:02:00,
2013-03-11 04:07:00,40.5,33.9,30.23,North,0,0.0,2.0,77,0.00,,---,0.00,VWS V14.01,2013-03-11 11:07:00,
2013-03-11 04:12:00,40.5,34.2,30.24,North,0,0.0,2.0,78,0.00,,---,0.00,VWS V14.01,2013-03-11 11:12:00,
2013-03-11 04:17:00,40.5,33.9,30.24,North,0,0.0,2.0,77,0.00,,---,0.00,VWS V14.01,2013-03-11 11:17:00,
2013-03-11 04:22:00,40.3,33.7,30.24,North,0,0.0,2.0,77,0.00,,---,0.00,VWS V14.01,2013-03-11 11:22:00,
2013-03-11 04:27:00,40.3,33.7,30.23,North,0,0.0,2.0,77,0.00,,---,0.00,VWS V14.01,2013-03-11 11:27:00,
2013-03-11 04:32:00,40.2,33.6,30.24,North,0,0.0,0.0,77,0.00,,---,0.00,VWS V14.01,2013-03-11 11:32:00,
2013-03-11 04:37:00,40.0,33.7,30.24,North,0,0.0,0.0,78,0.00,,---,0.00,VWS V14.01,2013-03-11 11:37:00,
2013-03-11 04:42:00,39.9,33.3,30.24,North,0,0.0,2.0,77,0.00,,---,0.00,VWS V14.01,2013-03-11 11:42:00,
2013-03-11 04:47:00,39.8,33.2,30.24,North,0,0.0,2.0,77,0.00,,---,0.00,VWS V14.01,2013-03-11 11:47:00,
2013-03-11 04:53:00,39.7,33.1,30.24,North,359,0.0,2.0,77,0.00,,---,0.00,VWS V14.01,2013-03-11 11:53:00,
2013-03-11 04:58:00,39.4,33.1,30.24,North,0,0.0,4.0,78,0.00,,---,0.00,VWS V14.01,2013-03-11 11:58:00,
2013-03-11 05:03:00,39.3,33.3,30.23,North,0,1.0,1.0,79,0.00,,---,0.00,VWS V14.01,2013-03-11 12:03:00,
2013-03-11 05:08:00,39.2,33.2,30.23,North,0,1.0,3.0,79,0.00,,---,0.00,VWS V14.01,2013-03-11 12:08:00,
2013-03-11 05:13:00,39.2,33.2,30.23,North,0,0.0,3.0,79,0.00,,---,0.00,VWS V14.01,2013-03-11 12:13:00,
2013-03-11 05:18:00,39.2,33.2,30.23,North,0,0.0,3.0,79,0.00,,---,0.00,VWS V14.01,2013-03-11 12:18:00,
2013-03-11 05:23:00,39.3,33.3,30.23,North,359,0.0,3.0,79,0.00,,---,0.00,VWS V14.01,2013-03-11 12:23:00,
2013-03-11 05:28:00,39.2,33.2,30.24,North,0,0.0,3.0,79,0.00,,---,0.00,VWS V14.01,2013-03-11 12:28:00,
2013-03-11 05:33:00,39.2,33.2,30.23,North,0,0.0,0.0,79,0.00,,---,0.00,VWS V14.01,2013-03-11 12:33:00,
2013-03-11 05:38:00,39.2,33.2,30.23,North,359,0.0,0.0,79,0.00,,---,0.00,VWS V14.01,2013-03-11 12:38:00,
2013-03-11 05:43:00,39.2,33.2,30.25,North,0,0.0,0.0,79,0.00,,---,0.00,VWS V14.01,2013-03-11 12:43:00,
2013-03-11 05:48:00,39.3,33.3,30.25,North,0,0.0,1.0,79,0.00,,---,0.00,VWS V14.01,2013-03-11 12:48:00,
2013-03-11 05:53:00,39.2,32.9,30.25,North,0,1.0,2.0,78,0.00,,---,0.00,VWS V14.01,2013-03-11 12:53:00,
2013-03-11 05:58:00,39.2,33.2,30.24,North,0,0.0,3.0,79,0.00,,---,0.00,VWS V14.01,2013-03-11 12:58:00,
2013-03-11 06:04:00,39.0,33.0,30.24,North,0,0.0,1.0,79,0.00,,---,0.00,VWS V14.01,2013-03-11 13:04:00,
2013-03-11 06:09:00,38.9,32.6,30.24,North,0,0.0,2.0,78,0.00,,---,0.00,VWS V14.01,2013-03-11 13:09:00,
2013-03-11 06:14:00,38.8,32.9,30.24,North,0,0.0,2.0,79,0.00,,---,0.00,VWS V14.01,2013-03-11 13:14:00,
2013-03-11 06:19:00,38.8,32.9,30.24,North,0,0.0,3.0,79,0.00,,---,0.00,VWS V14.01,2013-03-11 13:19:00,
2013-03-11 06:24:00,38.6,32.7,30.24,North,0,0.0,3.0,79,0.00,,---,0.00,VWS V14.01,2013-03-11 13:24:00,
2013-03-11 06:29:00,38.5,32.6,30.24,North,0,2.0,3.0,79,0.00,,---,0.00,VWS V14.01,2013-03-11 13:29:00,
2013-03-11 06:34:00,38.3,32.4,30.24,North,0,0.0,2.0,79,0.00,,---,0.00,VWS V14.01,2013-03-11 13:34:00,
2013-03-11 06:39:00,38.3,32.4,30.24,North,0,2.0,3.0,79,0.00,,---,0.00,VWS V14.01,2013-03-11 13:39:00,
2013-03-11 06:44:00,38.2,32.3,30.24,North,0,3.0,4.0,79,0.00,,---,0.00,VWS V14.01,2013-03-11 13:44:00,
2013-03-11 06:49:00,38.0,32.1,30.25,North,0,3.0,4.0,79,0.00,,---,0.00,VWS V14.01,2013-03-11 13:49:00,
2013-03-11 06:54:00,37.9,32.3,30.25,North,0,2.0,4.0,80,0.00,,---,0.00,VWS V14.01,2013-03-11 13:54:00,
2013-03-11 06:59:00,37.9,32.3,30.24,North,0,2.0,4.0,80,0.00,,---,0.00,VWS V14.01,2013-03-11 13:59:00,
2013-03-11 07:04:00,37.8,32.2,30.24,North,0,0.0,3.0,80,0.00,,---,0.00,VWS V14.01,2013-03-11 14:04:00,
2013-03-11 07:09:00,37.9,32.6,30.24,North,0,0.0,3.0,81,0.00,,---,0.00,VWS V14.01,2013-03-11 14:09:00,
2013-03-11 07:14:00,38.0,32.7,30.25,North,0,0.0,3.0,81,0.00,,---,0.00,VWS V14.01,2013-03-11 14:14:00,
2013-03-11 07:20:00,38.1,33.1,30.24,North,0,0.0,3.0,82,0.00,,---,0.00,VWS V14.01,2013-03-11 14:20:00,
2013-03-11 07:25:00,38.2,33.2,30.24,North,0,0.0,3.0,82,0.00,,---,0.00,VWS V14.01,2013-03-11 14:25:00,
2013-03-11 07:30:00,38.2,32.6,30.24,North,0,0.0,3.0,80,0.00,,---,0.00,VWS V14.01,2013-03-11 14:30:00,
2013-03-11 07:35:00,38.1,32.8,30.25,North,359,0.0,1.0,81,0.00,,---,0.00,VWS V14.01,2013-03-11 14:35:00,
2013-03-11 07:40:00,37.9,32.6,30.24,North,0,1.0,2.0,81,0.00,,---,0.00,VWS V14.01,2013-03-11 14:40:00,
2013-03-11 07:45:00,37.9,32.3,30.23,North,0,1.0,2.0,80,0.00,,---,0.00,VWS V14.01,2013-03-11 14:45:00,
2013-03-11 07:50:00,37.7,32.4,30.24,North,0,0.0,2.0,81,0.00,,---,0.00,VWS V14.01,2013-03-11 14:50:00,
2013-03-11 07:55:00,37.9,32.9,30.25,North,0,0.0,2.0,82,0.00,,---,0.00,VWS V14.01,2013-03-11 14:55:00,
2013-03-11 08:00:00,37.9,32.9,30.26,North,0,0.0,1.0,82,0.00,,---,0.00,VWS V14.01,2013-03-11 15:00:00,
2013-03-11 08:05:00,38.0,33.0,30.24,North,0,0.0,1.0,82,0.00,,---,0.00,VWS V14.01,2013-03-11 15:05:00,
2013-03-11 08:10:00,38.4,33.7,30.25,North,0,0.0,1.0,83,0.00,,---,0.00,VWS V14.01,2013-03-11 15:10:00,
2013-03-11 08:15:00,38.6,33.9,30.24,North,0,0.0,1.0,83,0.00,,---,0.00,VWS V14.01,2013-03-11 15:15:00,
2013-03-11 08:20:00,38.9,34.2,30.25,North,0,1.0,1.0,83,0.00,,---,0.00,VWS V14.01,2013-03-11 15:20:00,
2013-03-11 08:25:00,39.5,34.8,30.25,North,0,0.0,3.0,83,0.00,,---,0.00,VWS V14.01,2013-03-11 15:25:00,
2013-03-11 08:31:00,39.9,35.2,30.25,North,0,2.0,2.0,83,0.00,,---,0.00,VWS V14.01,2013-03-11 15:31:00,
2013-03-11 08:36:00,40.5,35.8,30.25,North,0,1.0,3.0,83,0.00,,---,0.00,VWS V14.01,2013-03-11 15:36:00,
2013-03-11 08:41:00,41.2,36.7,30.25,North,0,0.0,3.0,84,0.00,,---,0.00,VWS V14.01,2013-03-11 15:41:00,
2013-03-11 08:46:00,41.7,36.9,30.24,North,0,0.0,3.0,83,0.00,,---,0.00,VWS V14.01,2013-03-11 15:46:00,
2013-03-11 08:51:00,42.4,37.6,30.26,North,359,0.0,3.0,83,0.00,,---,0.00,VWS V14.01,2013-03-11 15:51:00,
2013-03-11 08:56:00,42.8,38.0,30.25,North,0,0.0,3.0,83,0.00,,---,0.00,VWS V14.01,2013-03-11 15:56:00,
2013-03-11 09:02:00,43.3,38.2,30.24,North,0,0.0,0.0,82,0.00,,---,0.00,VWS V14.01,2013-03-11 16:02:00,
2013-03-11 09:07:00,44.0,38.9,30.24,North,0,1.0,2.0,82,0.00,,---,0.00,VWS V14.01,2013-03-11 16:07:00,
2013-03-11 09:12:00,44.5,38.7,30.24,North,0,0.0,2.0,80,0.00,,---,0.00,VWS V14.01,2013-03-11 16:12:00,
2013-03-11 09:17:00,45.0,38.6,30.25,North,0,0.0,2.0,78,0.00,,---,0.00,VWS V14.01,2013-03-11 16:17:00,
2013-03-11 09:22:00,45.5,38.0,30.24,North,0,0.0,2.0,75,0.00,,---,0.00,VWS V14.01,2013-03-11 16:22:00,
2013-03-11 09:27:00,46.0,38.5,30.26,North,359,0.0,2.0,75,0.00,,---,0.00,VWS V14.01,2013-03-11 16:27:00,
2013-03-11 09:32:00,46.5,38.7,30.26,North,0,0.0,2.0,74,0.00,,---,0.00,VWS V14.01,2013-03-11 16:32:00,
2013-03-11 09:37:00,47.2,38.7,30.26,North,359,0.0,2.0,72,0.00,,---,0.00,VWS V14.01,2013-03-11 16:37:00,
2013-03-11 09:42:00,47.7,39.8,30.24,North,0,0.0,2.0,74,0.00,,---,0.00,VWS V14.01,2013-03-11 16:42:00,
2013-03-11 09:48:00,48.5,39.9,30.24,North,0,0.0,3.0,72,0.00,,---,0.00,VWS V14.01,2013-03-11 16:48:00,
2013-03-11 09:53:00,48.9,39.9,30.25,North,0,0.0,3.0,71,0.00,,---,0.00,VWS V14.01,2013-03-11 16:53:00,
2013-03-11 09:58:00,49.6,40.2,30.24,North,0,0.0,3.0,70,0.00,,---,0.00,VWS V14.01,2013-03-11 16:58:00,
2013-03-11 10:03:00,50.3,40.5,30.24,North,359,0.0,2.0,69,0.00,,---,0.00,VWS V14.01,2013-03-11 17:03:00,
2013-03-11 10:08:00,50.9,40.7,30.26,North,0,1.0,2.0,68,0.00,,---,0.00,VWS V14.01,2013-03-11 17:08:00,
2013-03-11 10:13:00,51.4,40.4,30.24,North,0,1.0,3.0,66,0.00,,---,0.00,VWS V14.01,2013-03-11 17:13:00,
2013-03-11 10:18:00,52.0,41.0,30.24,North,0,2.0,5.0,66,0.00,,---,0.00,VWS V14.01,2013-03-11 17:18:00,
2013-03-11 10:23:00,52.8,41.4,30.23,North,0,1.0,5.0,65,0.00,,---,0.00,VWS V14.01,2013-03-11 17:23:00,
2013-03-11 10:28:00,53.4,41.5,30.24,North,0,0.0,5.0,64,0.00,,---,0.00,VWS V14.01,2013-03-11 17:28:00,
2013-03-11 10:33:00,54.0,41.3,30.22,North,0,1.0,4.0,62,0.00,,---,0.00,VWS V14.01,2013-03-11 17:33:00,
2013-03-11 10:38:00,54.7,41.5,30.25,North,0,1.0,4.0,61,0.00,,---,0.00,VWS V14.01,2013-03-11 17:38:00,
2013-03-11 10:43:00,55.0,41.4,30.22,North,359,1.0,4.0,60,0.00,,---,0.00,VWS V14.01,2013-03-11 17:43:00,
2013-03-11 10:48:00,55.8,41.3,30.23,North,0,1.0,4.0,58,0.00,,---,0.00,VWS V14.01,2013-03-11 17:48:00,
2013-03-11 10:53:00,56.3,41.3,30.23,North,0,2.0,4.0,57,0.00,,---,0.00,VWS V14.01,2013-03-11 17:53:00,
2013-03-11 10:58:00,56.8,41.3,30.23,North,0,0.0,4.0,56,0.00,,---,0.00,VWS V14.01,2013-03-11 17:58:00,
2013-03-11 11:03:00,57.4,42.3,30.24,North,0,2.0,2.0,57,0.00,,---,0.00,VWS V14.01,2013-03-11 18:03:00,
2013-03-11 11:09:00,57.9,41.4,30.23,North,0,1.0,4.0,54,0.00,,---,0.00,VWS V14.01,2013-03-11 18:09:00,
2013-03-11 11:14:00,58.3,41.3,30.22,North,0,1.0,4.0,53,0.00,,---,0.00,VWS V14.01,2013-03-11 18:14:00,
2013-03-11 11:19:00,58.7,40.1,30.24,North,0,0.0,4.0,50,0.00,,---,0.00,VWS V14.01,2013-03-11 18:19:00,
2013-03-11 11:24:00,59.3,40.7,30.22,North,0,3.0,4.0,50,0.00,,---,0.00,VWS V14.01,2013-03-11 18:24:00,
2013-03-11 11:29:00,59.8,40.6,30.23,North,359,2.0,4.0,49,0.00,,---,0.00,VWS V14.01,2013-03-11 18:29:00,
2013-03-11 11:34:00,60.3,40.5,30.23,North,0,1.0,3.0,48,0.00,,---,0.00,VWS V14.01,2013-03-11 18:34:00,
2013-03-11 11:39:00,61.0,41.2,30.22,North,0,1.0,4.0,48,0.00,,---,0.00,VWS V14.01,2013-03-11 18:39:00,
2013-03-11 11:44:00,61.7,41.8,30.24,North,0,1.0,5.0,48,0.00,,---,0.00,VWS V14.01,2013-03-11 18:44:00,
2013-03-11 11:49:00,62.2,40.6,30.22,North,357,2.0,5.0,45,0.00,,---,0.00,VWS V14.01,2013-03-11 18:49:00,
2013-03-11 11:54:00,62.7,41.1,30.22,North,355,3.0,5.0,45,0.00,,---,0.00,VWS V14.01,2013-03-11 18:54:00,
2013-03-11 11:59:00,63.3,41.0,30.22,NNW,333,5.0,5.0,44,0.00,,---,0.00,VWS V14.01,2013-03-11 18:59:00,
2013-03-11 12:04:00,63.7,40.8,30.23,NW,315,0.0,4.0,43,0.00,,---,0.00,VWS V14.01,2013-03-11 19:04:00,
2013-03-11 12:09:00,64.2,40.0,30.24,NW,315,2.0,5.0,41,0.00,,---,0.00,VWS V14.01,2013-03-11 19:09:00,
2013-03-11 12:14:00,64.5,40.3,30.24,NW,315,1.0,5.0,41,0.00,,---,0.00,VWS V14.01,2013-03-11 19:14:00,
2013-03-11 12:19:00,64.6,41.6,30.21,NW,315,1.0,5.0,43,0.00,,---,0.00,VWS V14.01,2013-03-11 19:19:00,
2013-03-11 12:24:00,65.2,42.2,30.21,NW,316,4.0,5.0,43,0.00,,---,0.00,VWS V14.01,2013-03-11 19:24:00,
2013-03-11 12:29:00,65.6,41.9,30.22,NW,316,0.0,5.0,42,0.00,,---,0.00,VWS V14.01,2013-03-11 19:29:00,
2013-03-11 12:34:00,66.4,43.2,30.21,NW,316,0.0,3.0,43,0.00,,---,0.00,VWS V14.01,2013-03-11 19:34:00,
2013-03-11 12:39:00,66.6,42.2,30.20,NW,316,2.0,4.0,41,0.00,,---,0.00,VWS V14.01,2013-03-11 19:39:00,
2013-03-11 12:44:00,66.6,42.2,30.21,NW,316,1.0,5.0,41,0.00,,---,0.00,VWS V14.01,2013-03-11 19:44:00,
2013-03-11 12:49:00,66.3,42.5,30.20,NW,316,2.0,5.0,42,0.00,,---,0.00,VWS V14.01,2013-03-11 19:49:00,
2013-03-11 12:54:00,66.8,43.0,30.18,NW,316,0.0,5.0,42,0.00,,---,0.00,VWS V14.01,2013-03-11 19:54:00,
2013-03-11 13:00:00,67.2,43.4,30.20,NW,316,2.0,5.0,42,0.00,,---,0.00,VWS V14.01,2013-03-11 20:00:00,
2013-03-11 13:05:00,67.5,44.2,30.20,NW,316,3.0,5.0,43,0.00,,---,0.00,VWS V14.01,2013-03-11 20:05:00,
2013-03-11 13:10:00,67.5,43.6,30.18,NW,316,3.0,5.0,42,0.00,,---,0.00,VWS V14.01,2013-03-11 20:10:00,
2013-03-11 13:15:00,67.5,42.3,30.21,NW,318,2.0,5.0,40,0.00,,---,0.00,VWS V14.01,2013-03-11 20:15:00,
2013-03-11 13:20:00,67.9,44.0,30.18,NW,318,2.0,5.0,42,0.00,,---,0.00,VWS V14.01,2013-03-11 20:20:00,
2013-03-11 13:25:00,68.3,44.3,30.19,NW,319,1.0,5.0,42,0.00,,---,0.00,VWS V14.01,2013-03-11 20:25:00,
2013-03-11 13:30:00,68.7,43.4,30.17,NW,318,0.0,2.0,40,0.00,,---,0.00,VWS V14.01,2013-03-11 20:30:00,
2013-03-11 13:35:00,68.7,43.4,30.19,NW,319,0.0,4.0,40,0.00,,---,0.00,VWS V14.01,2013-03-11 20:35:00,
2013-03-11 13:40:00,69.1,43.8,30.19,NW,319,0.0,4.0,40,0.00,,---,0.00,VWS V14.01,2013-03-11 20:40:00,
2013-03-11 13:45:00,69.7,43.7,30.18,NW,319,1.0,4.0,39,0.00,,---,0.00,VWS V14.01,2013-03-11 20:45:00,
2013-03-11 13:50:00,70.1,44.0,30.18,NW,319,1.0,4.0,39,0.00,,---,0.00,VWS V14.01,2013-03-11 20:50:00,
2013-03-11 13:55:00,70.5,43.7,30.16,NW,319,0.0,4.0,38,0.00,,---,0.00,VWS V14.01,2013-03-11 20:55:00,
2013-03-11 14:00:00,70.7,43.9,30.15,NW,320,2.0,2.0,38,0.00,,---,0.00,VWS V14.01,2013-03-11 21:00:00,
2013-03-11 14:05:00,70.8,44.0,30.18,NW,320,1.0,5.0,38,0.00,,---,0.00,VWS V14.01,2013-03-11 21:05:00,
2013-03-11 14:10:00,70.8,43.3,30.18,NW,320,1.0,5.0,37,0.00,,---,0.00,VWS V14.01,2013-03-11 21:10:00,
2013-03-11 14:15:00,70.8,44.0,30.17,NW,320,1.0,5.0,38,0.00,,---,0.00,VWS V14.01,2013-03-11 21:15:00,
2013-03-11 14:20:00,70.7,43.9,30.15,NW,320,1.0,5.0,38,0.00,,---,0.00,VWS V14.01,2013-03-11 21:20:00,
2013-03-11 14:25:00,70.5,43.0,30.15,NW,320,1.0,5.0,37,0.00,,---,0.00,VWS V14.01,2013-03-11 21:25:00,
2013-03-11 14:31:00,70.5,43.7,30.16,NNW,345,7.0,9.0,38,0.00,,---,0.00,VWS V14.01,2013-03-11 21:31:00,
2013-03-11 14:36:00,70.4,42.9,30.15,North,359,4.0,9.0,37,0.00,,---,0.00,VWS V14.01,2013-03-11 21:36:00,
2013-03-11 14:41:00,70.2,43.4,30.14,North,0,1.0,9.0,38,0.00,,---,0.00,VWS V14.01,2013-03-11 21:41:00,
2013-03-11 14:46:00,70.2,43.4,30.15,North,0,1.0,9.0,38,0.00,,---,0.00,VWS V14.01,2013-03-11 21:46:00,
2013-03-11 14:51:00,70.5,43.0,30.12,WNW,297,1.0,9.0,37,0.00,,---,0.00,VWS V14.01,2013-03-11 21:51:00,
2013-03-11 14:57:00,71.0,43.4,30.14,North,349,3.0,9.0,37,0.00,,---,0.00,VWS V14.01,2013-03-11 21:57:00,
2013-03-11 15:02:00,71.6,42.5,30.15,NNW,345,3.0,5.0,35,0.00,,---,0.00,VWS V14.01,2013-03-11 22:02:00,
2013-03-11 15:07:00,71.7,41.1,30.14,NNW,339,1.0,7.0,33,0.00,,---,0.00,VWS V14.01,2013-03-11 22:07:00,
2013-03-11 15:12:00,71.7,41.9,30.14,NNW,343,3.0,7.0,34,0.00,,---,0.00,VWS V14.01,2013-03-11 22:12:00,
2013-03-11 15:17:00,71.9,41.3,30.14,North,352,1.0,7.0,33,0.00,,---,0.00,VWS V14.01,2013-03-11 22:17:00,
2013-03-11 15:22:00,71.6,41.0,30.14,North,0,4.0,7.0,33,0.00,,---,0.00,VWS V14.01,2013-03-11 22:22:00,
2013-03-11 15:27:00,71.8,41.2,30.16,North,356,6.0,7.0,33,0.00,,---,0.00,VWS V14.01,2013-03-11 22:27:00,
2013-03-11 15:32:00,71.8,40.4,30.12,NNW,332,1.0,5.0,32,0.00,,---,0.00,VWS V14.01,2013-03-11 22:32:00,
2013-03-11 15:37:00,71.9,40.5,30.12,NNW,333,4.0,6.0,32,0.00,,---,0.00,VWS V14.01,2013-03-11 22:37:00,
2013-03-11 15:42:00,72.1,40.7,30.15,NNW,339,3.0,6.0,32,0.00,,---,0.00,VWS V14.01,2013-03-11 22:42:00,
2013-03-11 15:47:00,72.2,41.5,30.13,North,353,2.0,6.0,33,0.00,,---,0.00,VWS V14.01,2013-03-11 22:47:00,
2013-03-11 15:52:00,72.4,40.9,30.14,NNW,333,2.0,6.0,32,0.00,,---,0.00,VWS V14.01,2013-03-11 22:52:00,
2013-03-11 15:57:00,72.7,41.2,30.13,North,3,3.0,9.0,32,0.00,,---,0.00,VWS V14.01,2013-03-11 22:57:00,
2013-03-11 16:03:00,72.8,42.0,30.14,NNW,339,3.0,5.0,33,0.00,,---,0.00,VWS V14.01,2013-03-11 23:03:00,
2013-03-11 16:08:00,73.3,44.0,30.14,North,355,3.0,6.0,35,0.00,,---,0.00,VWS V14.01,2013-03-11 23:08:00,
2013-03-11 16:13:00,73.7,43.6,30.13,SW,214,3.0,9.0,34,0.00,,---,0.00,VWS V14.01,2013-03-11 23:13:00,
2013-03-11 16:18:00,73.4,44.1,30.12,West,270,2.0,9.0,35,0.00,,---,0.00,VWS V14.01,2013-03-11 23:18:00,
2013-03-11 16:23:00,73.2,43.9,30.12,North,350,1.0,9.0,35,0.00,,---,0.00,VWS V14.01,2013-03-11 23:23:00,
2013-03-11 16:29:00,73.6,44.3,30.15,NNW,345,5.0,9.0,35,0.00,,---,0.00,VWS V14.01,2013-03-11 23:29:00,
2013-03-11 16:34:00,73.7,44.4,30.13,North,359,2.0,7.0,35,0.00,,---,0.00,VWS V14.01,2013-03-11 23:34:00,
2013-03-11 16:39:00,73.8,44.5,30.13,North,0,2.0,7.0,35,0.00,,---,0.00,VWS V14.01,2013-03-11 23:39:00,
2013-03-11 16:44:00,74.0,43.9,30.10,North,358,3.0,7.0,34,0.00,,---,0.00,VWS V14.01,2013-03-11 23:44:00,
2013-03-11 16:49:00,74.2,45.6,30.12,NNW,335,2.0,7.0,36,0.00,,---,0.00,VWS V14.01,2013-03-11 23:49:00,
2013-03-11 16:54:00,74.9,45.4,30.13,West,273,4.0,7.0,35,0.00,,---,0.00,VWS V14.01,2013-03-11 23:54:00,
2013-03-11 16:59:00,75.2,47.2,30.13,NW,315,4.0,7.0,37,0.00,,---,0.00,VWS V14.01,2013-03-11 23:59:00,
2013-03-11 17:04:00,75.1,46.3,30.11,NNW,342,2.0,7.0,36,0.00,,---,0.00,VWS V14.01,2013-03-12 00:04:00,
2013-03-11 17:09:00,74.9,46.2,30.13,NW,314,2.0,7.0,36,0.00,,---,0.00,VWS V14.01,2013-03-12 00:09:00,
2013-03-11 17:14:00,74.4,45.7,30.11,WNW,302,5.0,8.0,36,0.00,,---,0.00,VWS V14.01,2013-03-12 00:14:00,
2013-03-11 17:19:00,74.3,45.7,30.10,WSW,240,4.0,8.0,36,0.00,,---,0.00,VWS V14.01,2013-03-12 00:19:00,
2013-03-11 17:24:00,74.0,44.6,30.13,WSW,241,6.0,8.0,35,0.00,,---,0.00,VWS V14.01,2013-03-12 00:24:00,
2013-03-11 17:29:00,74.0,45.4,30.12,WSW,239,3.0,8.0,36,0.00,,---,0.00,VWS V14.01,2013-03-12 00:29:00,
2013-03-11 17:34:00,74.5,45.8,30.13,West,271,4.0,5.0,36,0.00,,---,0.00,VWS V14.01,2013-03-12 00:34:00,
2013-03-11 17:39:00,74.1,44.0,30.10,NW,321,4.0,7.0,34,0.00,,---,0.00,VWS V14.01,2013-03-12 00:39:00,
2013-03-11 17:44:00,73.3,44.0,30.08,SSW,209,2.0,7.0,35,0.00,,---,0.00,VWS V14.01,2013-03-12 00:44:00,
2013-03-11 17:49:00,72.7,43.5,30.10,WNW,294,4.0,7.0,35,0.00,,---,0.00,VWS V14.01,2013-03-12 00:49:00,
2013-03-11 17:54:00,72.6,43.4,30.10,NW,308,1.0,7.0,35,0.00,,---,0.00,VWS V14.01,2013-03-12 00:54:00,
2013-03-11 17:59:00,72.2,42.3,30.11,NNW,335,1.0,8.0,34,0.00,,---,0.00,VWS V14.01,2013-03-12 00:59:00,
2013-03-11 18:04:00,71.7,42.6,30.10,NNW,337,2.0,6.0,35,0.00,,---,0.00,VWS V14.01,2013-03-12 01:04:00,
2013-03-11 18:10:00,71.0,42.0,30.12,WNW,293,4.0,7.0,35,0.00,,---,0.00,VWS V14.01,2013-03-12 01:10:00,
2013-03-11 18:15:00,70.3,42.1,30.10,NNW,337,3.0,7.0,36,0.00,,---,0.00,VWS V14.01,2013-03-12 01:15:00,
2013-03-11 18:20:00,69.9,42.5,30.10,NW,309,4.0,7.0,37,0.00,,---,0.00,VWS V14.01,2013-03-12 01:20:00,
2013-03-11 18:25:00,69.4,42.0,30.09,WNW,301,3.0,7.0,37,0.00,,---,0.00,VWS V14.01,2013-03-12 01:25:00,
2013-03-11 18:30:00,68.7,42.1,30.10,WNW,292,3.0,3.0,38,0.00,,---,0.00,VWS V14.01,2013-03-12 01:30:00,
2013-03-11 18:35:00,68.2,41.7,30.11,NW,315,2.0,5.0,38,0.00,,---,0.00,VWS V14.01,2013-03-12 01:35:00,
2013-03-11 18:40:00,67.9,41.4,30.11,NW,315,0.0,5.0,38,0.00,,---,0.00,VWS V14.01,2013-03-12 01:40:00,
2013-03-11 18:45:00,67.5,41.7,30.11,WSW,258,0.0,5.0,39,0.00,,---,0.00,VWS V14.01,2013-03-12 01:45:00,
2013-03-11 18:50:00,67.1,41.3,30.10,WNW,294,2.0,5.0,39,0.00,,---,0.00,VWS V14.01,2013-03-12 01:50:00,
2013-03-11 18:55:00,66.6,40.9,30.11,NW,307,1.0,5.0,39,0.00,,---,0.00,VWS V14.01,2013-03-12 01:55:00,
2013-03-11 19:00:00,66.2,41.2,30.12,NNW,329,2.0,3.0,40,0.00,,---,0.00,VWS V14.01,2013-03-12 02:00:00,
2013-03-11 19:05:00,65.6,41.3,30.10,NW,326,2.0,5.0,41,0.00,,---,0.00,VWS V14.01,2013-03-12 02:05:00,
2013-03-11 19:10:00,65.0,40.8,30.12,NW,326,2.0,5.0,41,0.00,,---,0.00,VWS V14.01,2013-03-12 02:10:00,
2013-03-11 19:15:00,64.6,40.4,30.11,NW,325,2.0,5.0,41,0.00,,---,0.00,VWS V14.01,2013-03-12 02:15:00,
2013-03-11 19:20:00,64.1,40.6,30.12,NW,326,1.0,5.0,42,0.00,,---,0.00,VWS V14.01,2013-03-12 02:20:00,
2013-03-11 19:25:00,63.6,40.7,30.11,NNW,347,3.0,5.0,43,0.00,,---,0.00,VWS V14.01,2013-03-12 02:25:00,
2013-03-11 19:30:00,63.0,41.3,30.11,North,0,1.0,3.0,45,0.00,,---,0.00,VWS V14.01,2013-03-12 02:30:00,
2013-03-11 19:36:00,62.4,40.2,30.08,NNW,339,3.0,5.0,44,0.00,,---,0.00,VWS V14.01,2013-03-12 02:36:00,
2013-03-11 19:41:00,61.9,39.8,30.09,NNW,342,2.0,5.0,44,0.00,,---,0.00,VWS V14.01,2013-03-12 02:41:00,
2013-03-11 19:46:00,61.6,40.1,30.12,NNW,345,3.0,5.0,45,0.00,,---,0.00,VWS V14.01,2013-03-12 02:46:00,
2013-03-11 19:51:00,61.3,39.8,30.13,North,359,1.0,5.0,45,0.00,,---,0.00,VWS V14.01,2013-03-12 02:51:00,
2013-03-11 19:56:00,61.1,39.6,30.10,NNW,335,2.0,5.0,45,0.00,,---,0.00,VWS V14.01,2013-03-12 02:56:00,
2013-03-11 20:01:00,61.0,39.0,30.12,NNW,334,1.0,3.0,44,0.00,,---,0.00,VWS V14.01,2013-03-12 03:01:00,
2013-03-11 20:06:00,60.7,39.8,30.09,NNW,335,2.0,3.0,46,0.00,,---,0.00,VWS V14.01,2013-03-12 03:06:00,
2013-03-11 20:11:00,60.4,39.0,30.11,NNW,335,1.0,4.0,45,0.00,,---,0.00,VWS V14.01,2013-03-12 03:11:00,
2013-03-11 20:17:00,60.4,39.5,30.11,NNW,334,2.0,4.0,46,0.00,,---,0.00,VWS V14.01,2013-03-12 03:17:00,
2013-03-11 20:22:00,60.4,39.5,30.11,NNW,334,2.0,4.0,46,0.00,,---,0.00,VWS V14.01,2013-03-12 03:22:00,
2013-03-11 20:27:00,60.2,39.9,30.10,NNW,334,0.0,4.0,47,0.00,,---,0.00,VWS V14.01,2013-03-12 03:27:00,
2013-03-11 20:32:00,59.9,39.6,30.12,NNW,334,1.0,2.0,47,0.00,,---,0.00,VWS V14.01,2013-03-12 03:32:00,
2013-03-11 20:37:00,59.6,40.4,30.09,NNW,334,0.0,3.0,49,0.00,,---,0.00,VWS V14.01,2013-03-12 03:37:00,
2013-03-11 20:42:00,59.3,39.6,30.10,NNW,334,0.0,3.0,48,0.00,,---,0.00,VWS V14.01,2013-03-12 03:42:00,
2013-03-11 20:47:00,59.0,39.4,30.09,NNW,334,0.0,3.0,48,0.00,,---,0.00,VWS V14.01,2013-03-12 03:47:00,
2013-03-11 20:52:00,58.6,40.0,30.10,NNW,334,2.0,3.0,50,0.00,,---,0.00,VWS V14.01,2013-03-12 03:52:00,
2013-03-11 20:57:00,58.2,40.2,30.12,NNW,334,0.0,3.0,51,0.00,,---,0.00,VWS V14.01,2013-03-12 03:57:00,
2013-03-11 21:00:00,57.9,40.4,30.12,NNW,334,0.0,3.0,52,0.00,,---,0.00,VWS V14.01,2013-03-12 04:00:00,
2013-03-11 21:05:00,57.3,40.3,30.13,NNW,334,0.0,3.0,53,0.00,,---,0.00,VWS V14.01,2013-03-12 04:05:00,
2013-03-11 21:11:00,56.9,40.0,30.10,NNW,334,0.0,3.0,53,0.00,,---,0.00,VWS V14.01,2013-03-12 04:11:00,
2013-03-11 21:16:00,56.6,39.7,30.11,NNW,334,3.0,5.0,53,0.00,,---,0.00,VWS V14.01,2013-03-12 04:16:00,
2013-03-11 21:21:00,56.5,40.1,30.11,NNW,334,1.0,5.0,54,0.00,,---,0.00,VWS V14.01,2013-03-12 04:21:00,
2013-03-11 21:26:00,56.1,40.2,30.11,NNW,334,1.0,5.0,55,0.00,,---,0.00,VWS V14.01,2013-03-12 04:26:00,
2013-03-11 21:31:00,55.8,39.9,30.13,NNW,334,1.0,1.0,55,0.00,,---,0.00,VWS V14.01,2013-03-12 04:31:00,
2013-03-11 21:37:00,55.5,40.1,30.15,NNW,334,1.0,3.0,56,0.00,,---,0.00,VWS V14.01,2013-03-12 04:37:00,
2013-03-11 21:42:00,55.1,40.2,30.12,NNW,334,2.0,3.0,57,0.00,,---,0.00,VWS V14.01,2013-03-12 04:42:00,
2013-03-11 21:47:00,54.6,40.1,30.10,NNW,335,0.0,3.0,58,0.00,,---,0.00,VWS V14.01,2013-03-12 04:47:00,
2013-03-11 21:52:00,54.3,40.3,30.13,NNW,334,1.0,3.0,59,0.00,,---,0.00,VWS V14.01,2013-03-12 04:52:00,
2013-03-11 21:57:00,54.1,40.1,30.11,NNW,334,0.0,3.0,59,0.00,,---,0.00,VWS V14.01,2013-03-12 04:57:00,
2013-03-11 22:02:00,53.7,40.2,30.11,NNW,335,1.0,2.0,60,0.00,,---,0.00,VWS V14.01,2013-03-12 05:02:00,
2013-03-11 22:07:00,53.5,40.0,30.12,NNW,334,1.0,2.0,60,0.00,,---,0.00,VWS V14.01,2013-03-12 05:07:00,
2013-03-11 22:12:00,53.3,39.8,30.14,NNW,334,0.0,3.0,60,0.00,,---,0.00,VWS V14.01,2013-03-12 05:12:00,
2013-03-11 22:17:00,53.2,40.1,30.10,NNW,334,0.0,3.0,61,0.00,,---,0.00,VWS V14.01,2013-03-12 05:17:00,
2013-03-11 22:22:00,53.1,40.0,30.13,NNW,334,0.0,3.0,61,0.00,,---,0.00,VWS V14.01,2013-03-12 05:22:00,
2013-03-11 22:27:00,52.7,40.1,30.12,NNW,334,0.0,3.0,62,0.00,,---,0.00,VWS V14.01,2013-03-12 05:27:00,
2013-03-11 22:32:00,52.6,40.0,30.12,NNW,334,1.0,3.0,62,0.00,,---,0.00,VWS V14.01,2013-03-12 05:32:00,
2013-03-11 22:37:00,52.4,39.8,30.12,NNW,335,0.0,3.0,62,0.00,,---,0.00,VWS V14.01,2013-03-12 05:37:00,
2013-03-11 22:42:00,52.3,39.7,30.10,NNW,334,1.0,3.0,62,0.00,,---,0.00,VWS V14.01,2013-03-12 05:42:00,
2013-03-11 22:47:00,52.0,40.2,30.13,NNW,334,0.0,3.0,64,0.00,,---,0.00,VWS V14.01,2013-03-12 05:47:00,
2013-03-11 22:52:00,51.8,40.0,30.10,NNW,334,0.0,3.0,64,0.00,,---,0.00,VWS V14.01,2013-03-12 05:52:00,
2013-03-11 22:58:00,51.6,39.8,30.12,NNW,335,0.0,3.0,64,0.00,,---,0.00,VWS V14.01,2013-03-12 05:58:00,
2013-03-11 23:03:00,51.3,40.0,30.13,NNW,334,1.0,2.0,65,0.00,,---,0.00,VWS V14.01,2013-03-12 06:03:00,
2013-03-11 23:08:00,50.9,39.6,30.12,NNW,334,0.0,3.0,65,0.00,,---,0.00,VWS V14.01,2013-03-12 06:08:00,
2013-03-11 23:13:00,50.8,39.5,30.11,NNW,334,0.0,3.0,65,0.00,,---,0.00,VWS V14.01,2013-03-12 06:13:00,
2013-03-11 23:18:00,50.6,39.7,30.11,NNW,334,0.0,3.0,66,0.00,,---,0.00,VWS V14.01,2013-03-12 06:18:00,
2013-03-11 23:23:00,50.5,40.0,30.14,NNW,334,0.0,3.0,67,0.00,,---,0.00,VWS V14.01,2013-03-12 06:23:00,
2013-03-11 23:28:00,50.3,39.8,30.13,NNW,334,0.0,3.0,67,0.00,,---,0.00,VWS V14.01,2013-03-12 06:28:00,
2013-03-11 23:33:00,50.2,39.7,30.11,NNW,334,0.0,2.0,67,0.00,,---,0.00,VWS V14.01,2013-03-12 06:33:00,
2013-03-11 23:38:00,50.1,40.0,30.10,NNW,334,2.0,3.0,68,0.00,,---,0.00,VWS V14.01,2013-03-12 06:38:00,
2013-03-11 23:43:00,50.0,39.9,30.13,NNW,334,1.0,3.0,68,0.00,,---,0.00,VWS V14.01,2013-03-12 06:43:00,
2013-03-11 23:48:00,49.8,39.7,30.11,NNW,334,0.0,4.0,68,0.00,,---,0.00,VWS V14.01,2013-03-12 06:48:00,
2013-03-11 23:53:00,49.7,39.6,30.10,NNW,334,0.0,4.0,68,0.00,,---,0.00,VWS V14.01,2013-03-12 06:53:00,
2013-03-11 23:58:00,49.5,39.8,30.13,NNW,334,0.0,4.0,69,0.00,,---,0.00,VWS V14.01,2013-03-12 06:58:00,